Location: Écuvilly
(49.6505°N, 2.9206°E)
Time: 06:32:14
(UTC+00:00)

Cosmos 1975 Rocket - Pass Details

Date: 17 November 2025
Orbit: 598 x 625 km, 82.5° (Epoch: 16 December)

Event Time Altitude Azimuth Distance (km) Brightness Sun altitude
Rises 17:26:15 0° 346° (NNW) 2,872 6.5 -13.4°
Reaches altitude 10° 17:28:29 10° 343° (NNW) 1,967 5.7 -13.7°
Maximum altitude 17:32:45 58° 265° (W) 715 3.7 -14.4°
Drops below altitude 10° 17:37:02 10° 186° (S) 1,968 5.9 -15.1°
Sets 17:39:16 0° 183° (S) 2,872 6.7 -15.4°
